Weather History for Kahului, HI

Change the Weather History Date:

Wednesday, May 23, 2012

  Actual Average Record
Temperature  
Mean Temperature 78 °F 76 °F  
Max Temperature 85 °F 85 °F 92 °F (1996)
Min Temperature 71 °F 68 °F 60 °F (1951)
Degree Days  
Heating Degree Days 0 0  
Month to date heating degree days 0 0  
Since 1 July heating degree days 0 0  
Cooling Degree Days 13 11  
Month to date cooling degree days 230 240  
Year to date cooling degree days 1228 1166  
Growing Degree Days 26 (Base 50)    
Moisture  
Dew Point 63 °F    
Average Humidity 59    
Maximum Humidity 73    
Minimum Humidity 45    
Precipitation  
Precipitation T in 0.01 in 0.74 in (1978)
Month to date precipitation 0.42 0.63  
Year to date precipitation 3.45 9.39  
Snow  
Snow 0.00 in - - ()
Month to date snowfall 0.0  
Since 1 July snowfall 0.0  
Snow Depth 0.00 in    
Sea Level Pressure  
Sea Level Pressure 30.09 in    
Wind  
Wind Speed 20 mph (ENE)    
Max Wind Speed 33 mph    
Max Gust Speed 47 mph    
Visibility 10 miles    
Events Rain    
T = Trace of Precipitation, MM = Missing Value Source: NWS Daily Summary

Daily Weather History Graph

Daily Weather History Graph

Search for Another Location

Airport:

Trip Planner

Search our weather history database for the weather conditions in past years. The results will help you decide how hot, cold, wet, or windy it might be!

Date:

Astronomy

May. 23, 2012 Rise Set
Actual Time 5:45 AM HST 6:59 PM HST
Civil Twilight 5:21 AM HST 7:24 PM HST
Nautical Twilight 4:52 AM HST 7:52 PM HST
Astronomical Twilight 4:23 AM HST 8:22 PM HST
Moon 7:59 AM HST (5/23) 9:30 PM HST (5/23)
Length of Visible Light 14h 02m
Length of Day
13h 14m
Waxing Crescent, 8% of the Moon is Illuminated
May 23
Waxing Crescent
May 28
First Quarter
Jun 4
Full
Jun 11
Last Quarter
Jun 19
New

Hourly Weather History & Observations

Time (HST) Temp. Heat Index Dew Point Humidity Pressure Visibility Wind Dir Wind Speed Gust Speed Precip Events Conditions
12:54 AM 73.9 °F - 62.1 °F 66% 30.11 in 10.0 mi NE 16.1 mph 23.0 mph N/A   Mostly Cloudy
1:54 AM 73.0 °F - 62.1 °F 68% 30.09 in 10.0 mi ENE 15.0 mph 24.2 mph N/A   Clear
2:54 AM 73.0 °F - 63.0 °F 71% 30.08 in 10.0 mi NE 20.7 mph 27.6 mph N/A   Mostly Cloudy
3:54 AM 72.0 °F - 60.1 °F 66% 30.07 in 10.0 mi NE 16.1 mph 26.5 mph 0.00 in   Partly Cloudy
4:54 AM 73.0 °F - 63.0 °F 71% 30.07 in 10.0 mi NE 17.3 mph 27.6 mph 0.00 in Rain Light Rain
5:54 AM 72.0 °F - 62.1 °F 71% 30.07 in 10.0 mi NE 20.7 mph - 0.00 in   Partly Cloudy
6:54 AM 73.9 °F - 62.1 °F 66% 30.09 in 10.0 mi ENE 17.3 mph 29.9 mph N/A   Scattered Clouds
7:54 AM 75.9 °F - 61.0 °F 60% 30.10 in 10.0 mi ENE 17.3 mph 29.9 mph 0.00 in   Scattered Clouds
8:54 AM 78.1 °F - 60.1 °F 54% 30.11 in 10.0 mi ENE 24.2 mph 33.4 mph N/A   Scattered Clouds
9:54 AM 78.1 °F - 63.0 °F 60% 30.12 in 9.0 mi ENE 24.2 mph 36.8 mph N/A   Scattered Clouds
10:54 AM 81.0 °F 82.5 °F 64.0 °F 56% 30.11 in 10.0 mi ENE 18.4 mph 29.9 mph N/A   Scattered Clouds
11:54 AM 82.0 °F 83.1 °F 63.0 °F 52% 30.10 in 10.0 mi ENE 26.5 mph 40.3 mph N/A   Scattered Clouds
12:54 PM 82.0 °F 83.0 °F 62.1 °F 51% 30.09 in 10.0 mi East 19.6 mph 29.9 mph N/A   Scattered Clouds
1:54 PM 81.0 °F 81.9 °F 62.1 °F 52% 30.09 in 10.0 mi ENE 17.3 mph 31.1 mph 0.00 in   Mostly Cloudy
2:54 PM 81.0 °F 81.1 °F 57.9 °F 45% 30.06 in 10.0 mi East 27.6 mph 44.9 mph N/A   Scattered Clouds
3:54 PM 81.0 °F 81.9 °F 62.1 °F 52% 30.04 in 10.0 mi ENE 29.9 mph 43.7 mph N/A   Scattered Clouds
4:54 PM 77.0 °F - 64.9 °F 66% 30.05 in 10.0 mi ENE 27.6 mph 36.8 mph 0.00 in   Scattered Clouds
5:54 PM 75.0 °F - 64.0 °F 69% 30.06 in 10.0 mi ENE 26.5 mph 35.7 mph 0.00 in   Scattered Clouds
6:54 PM 73.0 °F - 64.9 °F 76% 30.09 in 8.0 mi ENE 20.7 mph 31.1 mph 0.00 in Rain Light Rain
7:54 PM 73.0 °F - 64.9 °F 76% 30.10 in 10.0 mi ENE 23.0 mph 32.2 mph 0.00 in   Partly Cloudy
8:54 PM 73.0 °F - 64.9 °F 76% 30.11 in 10.0 mi ENE 17.3 mph 29.9 mph N/A   Clear
9:54 PM 73.0 °F - 64.0 °F 73% 30.13 in 10.0 mi ENE 17.3 mph 34.5 mph N/A   Partly Cloudy
10:54 PM 73.0 °F - 64.0 °F 73% 30.12 in 10.0 mi ENE 18.4 mph 27.6 mph N/A   Clear
11:54 PM 73.0 °F - 64.9 °F 76% 30.11 in 10.0 mi ENE 24.2 mph 34.5 mph N/A   Clear